Weather History for KHIB - November, 2013

Change the Weather History Date:

Friday, November 22, 2013

  Actual Average Record
Temperature  
Mean Temperature 11 °F -  
Max Temperature 19 °F 30 °F 53 °F (2006)
Min Temperature 3 °F 12 °F -13 °F (1977)
Degree Days  
Heating Degree Days 54    
Moisture  
Dew Point 6 °F    
Average Humidity 74    
Maximum Humidity 87    
Minimum Humidity 57    
Precipitation  
Precipitation 0.00 in - - ()
Sea Level Pressure  
Sea Level Pressure 30.48 in    
Wind  
Wind Speed 7 mph (WNW)    
Max Wind Speed 20 mph    
Max Gust Speed 25 mph    
Visibility 7 miles    
Events Snow    
Averages and records for this station are not official NWS values.
T = Trace of Precipitation, MM = Missing Value Source: NWS Daily Summary

Daily Weather History Graph

Daily Weather History Graph

Search for Another Location

Airport or City:

Trip Planner

Search our weather history database for the weather conditions in past years. The results will help you decide how hot, cold, wet, or windy it might be!

Date:

Astronomy

Nov. 22, 2013 Rise Set
Actual Time 7:26 AM CST 4:28 PM CST
Civil Twilight 6:52 AM CST 5:02 PM CST
Nautical Twilight 6:14 AM CST 5:40 PM CST
Astronomical Twilight 5:37 AM CST 6:16 PM CST
Moon 9:06 PM CST (11/22) 11:05 AM CST (11/22)
Length of Visible Light 10h 10m
Length of Day
9h 02m
Waning Gibbous, 78% of the Moon is Illuminated
Nov 22
Waning Gibbous
Nov 25
Last Quarter
Dec 2
New
Dec 9
First Quarter
Dec 17
Full

Hourly Weather History & Observations

Time (CST) Temp. Windchill Dew Point Humidity Pressure Visibility Wind Dir Wind Speed Gust Speed Precip Events Conditions
12:35 AM 14.0 °F 6.5 °F 8.6 °F 79% 30.48 in 10.0 mi NW 4.6 mph - N/A   Partly Cloudy
12:53 AM 15.1 °F 5.2 °F 9.0 °F 77% 30.56 in 10.0 mi NW 6.9 mph - N/A   Partly Cloudy
1:53 AM 12.9 °F 5.2 °F 8.1 °F 81% 30.56 in 10.0 mi NNW 4.6 mph - N/A   Partly Cloudy
2:21 AM 12.2 °F 4.3 °F 8.6 °F 85% 30.48 in 8.0 mi NW 4.6 mph - N/A   Mostly Cloudy
2:49 AM 10.4 °F - 6.8 °F 85% 30.48 in 10.0 mi Calm Calm - N/A   Scattered Clouds
2:53 AM 10.0 °F - 6.1 °F 84% 30.57 in 10.0 mi Calm Calm - N/A   Partly Cloudy
3:53 AM 7.0 °F - 3.0 °F 84% 30.55 in 10.0 mi Calm Calm - N/A   Clear
4:53 AM 3.9 °F - -0.9 °F 80% 30.55 in 10.0 mi Calm Calm - N/A   Clear
5:41 AM 6.8 °F - 3.2 °F 85% 30.44 in 10.0 mi Calm Calm - N/A   Scattered Clouds
5:50 AM 8.6 °F 2.0 °F 3.2 °F 79% 30.44 in 10.0 mi SSW 3.5 mph - N/A   Mostly Cloudy
5:53 AM 8.1 °F 1.4 °F 3.9 °F 83% 30.54 in 10.0 mi SSW 3.5 mph - N/A   Mostly Cloudy
6:18 AM 6.8 °F - 3.2 °F 85% 30.43 in 10.0 mi Calm Calm - N/A   Scattered Clouds
6:53 AM 8.1 °F 1.4 °F 3.9 °F 83% 30.51 in 10.0 mi South 3.5 mph - N/A   Clear
7:53 AM 8.1 °F 1.4 °F 5.0 °F 87% 30.49 in 10.0 mi SSW 3.5 mph - N/A   Clear
8:53 AM 12.0 °F 5.9 °F 7.0 °F 80% 30.49 in 10.0 mi Variable 3.5 mph - N/A   Partly Cloudy
9:53 AM 16.0 °F 4.4 °F 7.0 °F 68% 30.48 in 10.0 mi WSW 9.2 mph - N/A   Mostly Cloudy
10:53 AM 19.0 °F 9.0 °F 7.0 °F 59% 30.48 in 10.0 mi West 8.1 mph - N/A   Overcast
11:53 AM 19.0 °F 8.2 °F 6.1 °F 57% 30.45 in 10.0 mi West 9.2 mph - N/A   Overcast
12:28 PM 17.6 °F 7.3 °F 8.6 °F 68% 30.36 in 3.0 mi West 8.1 mph - 0.00 in Snow Light Snow
12:35 PM 17.6 °F 6.4 °F 8.6 °F 68% 30.37 in 1.8 mi WNW 9.2 mph - 0.00 in Snow Light Snow
12:53 PM 18.0 °F 7.7 °F 10.9 °F 74% 30.46 in 1.0 mi West 8.1 mph - 0.00 in Snow Light Snow
1:15 PM 17.6 °F 8.2 °F 10.4 °F 73% 30.37 in 0.8 mi West 6.9 mph - 0.00 in Snow Light Snow
1:19 PM 17.6 °F 7.3 °F 10.4 °F 73% 30.37 in 1.0 mi West 8.1 mph - 0.00 in Snow Light Snow
1:38 PM 17.6 °F 6.4 °F 10.4 °F 73% 30.37 in 3.0 mi West 9.2 mph - 0.00 in Snow Light Snow
1:53 PM 18.0 °F 7.7 °F 10.0 °F 71% 30.47 in 5.0 mi WNW 8.1 mph 18.4 mph 0.00 in Snow Light Snow
2:53 PM 18.0 °F 6.1 °F 9.0 °F 68% 30.48 in 6.0 mi WNW 10.4 mph - 0.00 in Snow Light Snow
3:19 PM 17.6 °F 5.0 °F 10.4 °F 73% 30.39 in 1.8 mi NW 11.5 mph - 0.00 in Snow Light Snow
3:31 PM 17.6 °F 4.3 °F 10.4 °F 73% 30.39 in 3.0 mi WNW 12.7 mph - 0.00 in Snow Light Snow
3:46 PM 17.6 °F 4.3 °F 8.6 °F 68% 30.40 in 9.0 mi WNW 12.7 mph 17.3 mph 0.00 in Snow Light Snow
3:53 PM 18.0 °F 5.4 °F 8.1 °F 65% 30.50 in 8.0 mi WNW 11.5 mph - 0.00 in Snow Light Snow
4:17 PM 17.6 °F 2.7 °F 8.6 °F 68% 30.41 in 2.5 mi NW 16.1 mph 21.9 mph 0.00 in Snow Light Snow
4:25 PM 15.8 °F 2.1 °F 8.6 °F 73% 30.41 in 1.2 mi NW 12.7 mph 23.0 mph 0.00 in Snow Light Snow
4:34 PM 15.8 °F -0.6 °F 8.6 °F 73% 30.41 in 3.0 mi NW 18.4 mph 24.2 mph 0.00 in Snow Light Snow
4:53 PM 16.0 °F 1.1 °F 6.1 °F 65% 30.52 in 3.0 mi NW 15.0 mph - 0.00 in   Overcast
5:13 PM 15.8 °F 1.4 °F 6.8 °F 68% 30.42 in 2.5 mi NNW 13.8 mph - 0.00 in Snow Light Snow
5:31 PM 14.0 °F -0.8 °F 6.8 °F 73% 30.43 in 4.0 mi NNW 13.8 mph 21.9 mph 0.00 in Snow Light Snow
5:53 PM 14.0 °F -1.4 °F 7.0 °F 74% 30.55 in 2.0 mi NNW 15.0 mph - 0.00 in Snow Light Snow
6:14 PM 12.2 °F -2.5 °F 5.0 °F 73% 30.45 in 7.0 mi NNW 12.7 mph - 0.00 in Snow Light Snow
6:53 PM 10.9 °F -7.5 °F 1.9 °F 67% 30.58 in 10.0 mi NNW 19.6 mph 24.2 mph 0.00 in   Overcast
7:01 PM 10.4 °F -7.2 °F 3.2 °F 73% 30.47 in 10.0 mi NW 17.3 mph 24.2 mph N/A   Overcast
7:15 PM 10.4 °F -8.2 °F 3.2 °F 73% 30.48 in 5.0 mi NW 19.6 mph 25.3 mph 0.00 in Snow Light Snow
7:53 PM 9.0 °F -7.3 °F 1.0 °F 70% 30.60 in 10.0 mi NW 13.8 mph - 0.00 in   Overcast
8:34 PM 8.6 °F -7.7 °F 1.4 °F 73% 30.50 in 9.0 mi WNW 13.8 mph 21.9 mph N/A   Overcast
8:53 PM 9.0 °F -6.6 °F 1.9 °F 73% 30.61 in 7.0 mi NW 12.7 mph - N/A   Overcast
9:53 PM 9.0 °F -9.0 °F 1.9 °F 73% 30.62 in 6.0 mi NW 17.3 mph 24.2 mph N/A   Haze
10:21 PM 8.6 °F -10.0 °F 1.4 °F 73% 30.53 in 6.0 mi NW 18.4 mph 23.0 mph N/A   Haze
10:53 PM 8.1 °F -8.4 °F 1.9 °F 76% 30.64 in 6.0 mi NW 13.8 mph - N/A   Haze
11:01 PM 8.6 °F -7.7 °F 1.4 °F 73% 30.54 in 7.0 mi NW 13.8 mph 21.9 mph N/A   Overcast
11:53 PM 8.1 °F -6.2 °F 1.9 °F 76% 30.66 in 8.0 mi NW 10.4 mph - 0.00 in Snow Light Snow